GW4950 Weather Reports


time (UTC)temp
C
wind
direction
speed
KPH
gust
KPH
rain 1hr
cm
rain 24hr
cm
rain mn
cm
humidity
%
barometer
mb
20260510210046 10 235 0.0 1.6 0.00 1.27 0.99 82 1012.6
20260510204520 10 235 0.0 0.0 0.00 1.27 0.99 81 1012.7
20260510203012 10 225 0.0 8.0 0.00 1.27 0.99 81 1012.4
20260510201515 10 226 4.8 16.1 0.00 1.27 0.99 79 1012.1
20260510200057 11 229 11.3 27.4 0.00 1.27 0.99 77 1011.7
20260510194529 11 222 14.5 25.7 0.00 1.27 0.99 77 1011.4
20260510193010 11 233 12.9 24.1 0.00 1.27 0.99 77 1011.3
20260510191530 11 209 9.7 16.1 0.00 1.27 0.99 76 1011.2
20260510190017 11 204 12.9 24.1 0.00 1.27 0.99 74 1011.0
20260510184540 11 212 16.1 24.1 0.00 1.27 0.99 73 1010.8
20260510183031 12 211 11.3 20.9 0.00 1.27 0.99 72 1010.7
20260510181601 12 216 11.3 25.7 0.00 1.27 0.99 70 1010.8
20260510180046 12 204 16.1 29.0 0.00 1.27 0.99 67 1010.6
20260510174504 13 208 17.7 32.2 0.00 1.27 0.99 65 1010.6
20260510173058 13 211 12.9 25.7 0.00 1.27 0.99 65 1010.4
20260510171514 13 212 17.7 27.4 0.00 1.27 0.99 62 1010.3
20260510170008 13 210 12.9 19.3 0.00 1.27 0.99 62 1010.3
20260510164529 13 230 11.3 29.0 0.00 1.27 0.99 63 1010.2
20260510163016 13 201 14.5 37.0 0.00 1.27 0.99 63 1010.5
20260510161543 13 213 20.9 38.6 0.00 1.27 0.99 62 1010.3
20260510160022 13 210 24.1 38.6 0.00 1.35 0.99 59 1010.2
20260510154514 13 253 22.5 38.6 0.00 1.35 0.99 60 1010.1
20260510153003 13 216 24.1 43.5 0.00 1.35 0.99 61 1010.3
20260510151522 13 225 20.9 32.2 0.00 1.35 0.99 66 1010.3
20260510150010 13 243 22.5 45.1 0.00 1.35 0.99 69 1010.5
20260510144533 13 205 24.1 37.0 0.00 1.35 0.99 71 1010.5
20260510143018 12 216 24.1 33.8 0.00 1.35 0.99 75 1010.8
20260510141552 12 200 17.7 29.0 0.00 1.35 0.99 80 1010.9
20260510140033 11 222 25.7 32.2 0.00 1.35 0.99 81 1010.9
20260510134558 11 240 17.7 27.4 0.00 1.35 0.99 84 1010.6
20260510133047 11 185 16.1 24.1 0.00 1.35 0.99 84 1010.6
20260510131532 12 201 12.9 29.0 0.00 1.35 0.99 83 1010.4
20260510130019 11 224 14.5 24.1 0.00 1.40 0.99 85 1010.5
20260510124533 11 213 19.3 29.0 0.00 1.40 0.99 82 1010.7
20260510123024 11 202 8.0 19.3 0.00 1.40 0.99 88 1010.7
20260510121535 11 173 8.0 22.5 0.00 1.40 0.99 88 1010.6
20260510120026 11 216 11.3 22.5 0.00 1.45 0.99 90 1010.9
20260510114546 10 157 11.3 24.1 0.00 1.45 0.99 91 1011.0
20260510113031 10 208 11.3 27.4 0.00 1.45 0.99 89 1010.8
20260510111554 11 206 12.9 22.5 0.33 1.45 0.99 88 1011.1
20260510110046 10 229 17.7 29.0 0.61 1.45 0.99 87 1011.0
20260510104559 10 246 12.9 25.7 0.61 1.52 0.99 91 1010.9
20260510103050 8 243 14.5 24.1 0.61 1.52 0.99 92 1011.0
20260510101503 9 254 22.5 29.0 0.25 1.17 0.64 88 1011.0
20260510100039 10 147 9.7 22.5 0.03 0.89 0.38 90 1010.3
20260510094513 10 132 11.3 25.7 0.03 0.89 0.36 89 1010.2
20260510093105 10 150 11.3 19.3 0.03 0.89 0.36 91 1010.5
20260510091515 10 141 9.7 17.7 0.03 0.89 0.36 93 1010.6
20260510090003 10 116 11.3 19.3 0.05 1.02 0.33 94 1010.8
20260510084517 10 172 9.7 17.7 0.08 1.02 0.33 94 1010.9
20260510083005 10 134 14.5 25.7 0.08 1.02 0.33 95 1010.9
20260510081533 9 129 11.3 17.7 0.10 1.02 0.33 95 1010.9
20260510080003 9 160 9.7 17.7 0.05 0.99 0.30 96 1011.2
20260510074519 9 173 6.4 17.7 0.03 0.94 0.25 96 1011.2
20260510073104 8 158 4.8 11.3 0.03 0.94 0.25 96 1011.2
20260510071505 8 137 3.2 11.3 0.00 0.91 0.23 96 1011.1
20260510070100 8 179 3.2 11.3 0.00 0.91 0.23 96 1011.1
20260510064544 8 166 4.8 11.3 0.00 0.91 0.23 96 1011.0
20260510063038 8 194 3.2 11.3 0.05 0.91 0.23 96 1011.0
20260510061547 8 211 3.2 11.3 0.05 0.91 0.23 96 1011.0
20260510060050 8 164 1.6 8.0 0.05 0.91 0.23 96 1010.6
20260510054555 8 164 0.0 8.0 0.05 0.91 0.23 96 1010.6
20260510054507 8 164 0.0 8.0 0.05 0.91 0.23 96 1010.7
20260510053105 8 185 1.6 9.7 0.03 0.89 0.20 96 1010.7
20260510051518 8 175 3.2 8.0 0.03 0.89 0.20 96 1010.6
20260510050112 8 170 1.6 6.4 0.03 0.89 0.20 96 1010.6
20260510044542 8 163 1.6 6.4 0.03 0.86 0.18 95 1010.7
20260510043021 8 164 1.6 4.8 0.15 0.86 0.18 95 1010.7
20260510041544 8 164 0.0 4.8 0.18 0.86 0.18 95 1010.8
20260510040046 8 164 0.0 0.0 0.18 0.86 0.18 95 1010.8
20260510034506 8 164 0.0 3.2 0.15 0.84 0.15 95 1010.8
20260510033112 8 164 3.2 6.4 0.05 0.71 0.05 95 1011.0
20260510031514 8 159 3.2 6.4 0.00 0.69 0.00 95 1011.1
20260510030015 8 160 4.8 8.0 0.00 0.69 0.00 95 1011.2
20260510024517 8 157 1.6 8.0 0.00 0.69 0.00 95 1011.1
20260510023002 8 170 1.6 11.3 0.00 0.69 0.00 95 1011.4
20260510021533 8 195 4.8 11.3 0.00 0.69 0.00 95 1011.3
20260510020058 8 193 3.2 14.5 0.00 0.69 0.00 95 1011.3
20260510014542 8 172 1.6 6.4 0.00 0.69 0.00 95 1011.2
20260510013047 8 168 1.6 8.0 0.00 0.69 0.00 95 1011.1
20260510011513 8 208 6.4 11.3 0.00 0.69 0.00 94 1011.3
20260510010059 8 225 4.8 12.9 0.00 0.69 0.00 95 1011.4
20260510004518 8 206 3.2 8.0 0.00 0.69 0.00 95 1011.5
20260510003010 8 206 4.8 8.0 0.00 0.69 0.00 95 1011.6
20260510001514 8 196 4.8 14.5 0.00 0.69 0.00 94 1011.6
20260510000100 8 195 6.4 12.9 0.00 0.69 0.00 94 1011.6
20260509234530 8 195 3.2 12.9 0.00 0.69 0.69 93 1011.5
20260509233011 8 204 4.8 12.9 0.03 0.69 0.69 93 1011.7
20260509231559 8 181 4.8 9.7 0.03 0.69 0.69 92 1011.7
20260509231504 8 177 4.8 9.7 0.03 0.69 0.69 92 1011.7
20260509230004 8 180 3.2 6.4 0.03 0.69 0.69 91 1011.5
20260509224529 8 169 0.0 4.8 0.03 0.69 0.69 90 1011.4
20260509223029 9 225 3.2 9.7 0.00 0.66 0.66 87 1011.4
20260509221549 9 249 6.4 17.7 0.00 0.66 0.66 86 1011.1
20260509220029 9 255 11.3 17.7 0.03 0.66 0.66 88 1011.0
20260509214509 9 239 4.8 9.7 0.13 0.66 0.66 88 1010.8
20260509213003 9 240 8.0 22.5 0.25 0.66 0.66 85 1010.7
20260509211525 9 237 11.3 24.1 0.25 0.66 0.66 86 1010.7